Home   Weather   Mabalacat   Past weeks

Flag for Philippines Past Weather in Mabalacat, Philippines — Yesterday and Last 2 Weeks

86 °F

Scattered clouds.

Feels Like: 97 °F
Forecast: 76 / 90 °F
Wind: 5 mph from Southeast

Location: Clarkfield Pampanga International Airport

Current Time: Oct 23, 2016 at 11:18:43 AM

Latest Report: Oct 23, 2016 at 11:00 AM

Visibility: N/A

Pressure: 29.86 "Hg

Humidity: 75%

Dew Point: 77 °F

Location of MabalacatLocation

Past Weather in Mabalacat — Graph


Mabalacat Temperature Yesterday

Maximum temperature yesterday: 91 °F (at 12:00 PM)
Minimum temperature yesterday: 79 °F (at 2:00 AM)
Average temperature yesterday: 83 °F

High & Low Weather Summary for the Past Weeks

High91 °F (Oct 22, 12:00 PM)100% (Oct 8, 8:00 PM)29.89 "Hg (Oct 8, 8:00 PM)
Low75 °F (Oct 9, 1:00 AM)62% (Oct 14, 5:00 PM)29.36 "Hg (Oct 16, 4:00 AM)
Average81 °F86%29.77 "Hg
* Reported Oct 8 10:00 AM — Oct 23 10:00 AM, Mabalacat, Weather by CustomWeather, © 2016

Note: Actual official high and low records may vary slightly from our data, if they occured in-between our weather recording intervals... More about our weather records


Mabalacat Weather History for the Previous 24 Hours

Scroll right to see more
Time TempWeatherWind HumidityBarometerVisibility
10:00 AM
Sun, Oct 23
86 °FScattered clouds.5 mph75%29.89 "HgN/A
9:00 AM82 °FScattered clouds.6 mph84%29.89 "HgN/A
8:00 AM81 °FPartly sunny.6 mph84%29.86 "HgN/A
7:00 AM79 °FPartly sunny.3 mph94%29.86 "HgN/A
6:00 AM77 °FPartly sunny.7 mph94%29.86 "HgN/A
5:00 AM77 °FPartly cloudy.6 mph100%29.83 "Hg5 mi
4:00 AM79 °FPassing clouds.6 mph94%29.83 "Hg5 mi
3:00 AM79 °FPartly cloudy.2 mph94%29.83 "Hg5 mi
2:00 AM79 °FPartly cloudy.2 mph94%29.83 "Hg5 mi
1:00 AM79 °FMostly cloudy.2 mph94%29.86 "Hg5 mi
12:00 AM79 °FMostly cloudy.5 mph94%29.86 "Hg5 mi
11:00 PM
Sat, Oct 22
79 °FMostly cloudy.5 mph94%29.86 "Hg5 mi
10:00 PM81 °FMostly cloudy.2 mph89%29.86 "Hg5 mi
9:00 PM81 °FMostly cloudy.2 mph89%29.86 "Hg5 mi
8:00 PM81 °FPartly cloudy.2 mph89%29.86 "Hg5 mi
7:00 PM81 °FPartly cloudy.2 mph89%29.83 "Hg5 mi
6:00 PM81 °FPartly cloudy.5 mph89%29.80 "Hg5 mi
5:00 PM81 °FBroken clouds.5 mph89%29.80 "Hg5 mi
4:00 PM86 °FBroken clouds.7 mph79%29.80 "Hg5 mi
3:00 PM86 °FSprinkles. Broken clouds.6 mph79%29.77 "Hg5 mi
2:00 PM91 °FBroken clouds.5 mph67%29.80 "HgN/A
1:00 PM90 °FScattered clouds.5 mph71%29.83 "HgN/A
12:00 PM91 °FScattered clouds.7 mph67%29.86 "HgN/A
11:00 AM90 °FBroken clouds.9 mph71%29.86 "HgN/A
Weather by CustomWeather, © 2016

See weather overviewHow to use our weather pages